Location: C�an Torras
(41.5052°N, 1.9280°E)
Time: 20:55:47
(UTC+00:00)

Aureole 3 - Pass Details

Date: 20 January 2021
Orbit: 381 x 1231 km, 82.5° (Epoch: 03 March)

Event Time Altitude Azimuth Distance (km) Brightness Sun altitude
Rises 18:53:08 0° 346° (NNW) 2,600 6.8 -22.2°
Reaches altitude 10° 18:55:27 10° 340° (NNW) 1,610 5.8 -22.6°
Maximum altitude 18:58:43 44° 267° (W) 587 3.9 -23.2°
Drops below altitude 10° 19:01:36 10° 193° (SSW) 1,421 5.6 -23.7°
Sets 19:03:32 0° 187° (S) 2,247 6.6 -24.1°
